This demonstration page uses our WeatherBlox Daily Observations layout. Learn more.

Left ArrowRight Arrow

39.92423, -83.80882

Hourly Observations for July 4, 2021

Temp ( °F °C ) Dew Point ( °F °C ) Humidity (%) Winds ( mph kmh ) Pressure ( in mb ) Visibility ( mi km ) Precip ( " mm )
12:56 am 00:56 Mostly Cloudy 67 19.4 59 15 76 76 WSW 8 13 29.95 1014 10 16 N/A
1:56 am 01:56 Clear 65 18.3 60 15.6 84 84 WSW 8 13 29.93 1014 10 16 N/A
2:56 am 02:56 Mostly Clear 66 18.9 61 16.1 84 84 WSW 13 20 29.91 1013 10 16 N/A
3:56 am 03:56 Mostly Clear 66 18.9 62 16.7 87 87 WSW 10 17 29.91 1013 10 16 N/A
4:56 am 04:56 Clear 65 18.3 63 17.2 93 93 W 9 15 29.92 1013 10 16 N/A
5:56 am 05:56 Clear 64 17.8 64 17.8 100 100 WSW 8 13 29.92 1013 10 16 N/A
6:56 am 06:56 Sunny 64 18 N/A N/A W 7 11 29.93 1014 10 16 N/A
7:56 am 07:56 Sunny 67 19.4 67 19.4 100 100 W 8 13 29.94 1014 10 16 N/A
8:56 am 08:56 Sunny 70 21.1 68 20 93 93 WNW 9 15 29.95 1014 10 16 N/A
9:56 am 09:56 Sunny 74 23.3 69 20.6 85 85 WNW 10 17 29.95 1014 10 16 N/A
10:56 am 10:56 Sunny 77 25 69 20.6 77 77 WNW 6 9 29.95 1014 10 16 N/A
11:56 am 11:56 Sunny 79 26.1 70 21.1 74 74 WNW 7 11 29.96 1014 10 16 N/A
12:56 pm 12:56 Mostly Sunny 82 27.8 71 21.7 69 69 NW 7 11 29.95 1014 10 16 N/A
1:56 pm 13:56 Mostly Sunny 84 28.9 72 22.2 67 67 N 9 15 29.95 1014 10 16 N/A
2:56 pm 14:56 Mostly Sunny 85 29.4 71 21.7 63 63 N 8 13 29.95 1014 10 16 N/A
3:56 pm 15:56 Mostly Sunny 86 30 72 22.2 63 63 WNW 5 7 29.95 1014 10 16 N/A
4:56 pm 16:56 Partly Cloudy 85 29.4 73 22.8 68 68 W 8 13 29.94 1014 10 16 N/A
5:56 pm 17:56 Mostly Cloudy 86 30 72 22.2 63 63 WNW 9 15 29.95 1014 10 16 N/A
6:56 pm 18:56 Mostly Sunny 85 29.4 73 22.8 68 68 W 5 7 29.95 1014 10 16 N/A
7:56 pm 19:56 Sunny 83 28.3 74 23.3 74 74 W 5 7 29.96 1014 10 16 N/A
8:56 pm 20:56 Sunny 79 26.1 76 24.4 90 90 W 3 6 29.96 1015 10 16 N/A
9:56 pm 21:56 Mostly Clear 75 24 N/A N/A SW 3 6 29.97 1015 10 16 N/A
10:56 pm 22:56 Clear 75 24 N/A N/A W 6 9 29.99 1016 7 11 N/A
11:56 pm 23:56 Clear 73 23 N/A N/A W 6 9 29.99 1016 9 14 N/A

Powered by AerisWeather